|
NORAD ID: 34544 Int'l Code: 1993-036UE
Perigee: 780.9 km
Apogee: 1,378.8 km
Inclination: 73.9 °
Period: 106.7 minutes
Semi major axis: 7450 km
Launch date: June 16, 1993
Source: Commonwealth of Independent States (former USSR) (CIS)
Note: This is SATELLITE DEBRIS
Two Line Element Set (TLE):
1 34544U 93036UE 13144.07572490 .00000385 00000-0 38799-3 0 8228
2 34544 073.9193 030.3511 0401183 184.9666 298.9477 13.49879219209868
Source:
NASA's NSSDC Master Catalog entry for COSMOS 2251 DEB
|